DW4207 Weather Reports


Display with metric or nautical units.
time (UTC)temp
F
wind
direction
speed
MPH
gust
MPH
rain 1hr
in
rain 24hr
in
rain mn
in
humidity
%
barometer
mb
20260506051004 46 351 1.0 4.0 0.03 1.58 0.04 91 1010.6
20260506045004 46 322 0.0 2.0 0.03 1.74 0.03 91 1011.1
20260506044004 46 348 1.0 3.0 0.04 1.74 0.03 90 1010.8
20260506043004 46 3 1.0 3.0 0.04 1.72 0.01 90 1010.2
20260506042004 46 359 1.0 4.0 0.07 1.72 0.01 90 1009.9
20260506041025 46 22 2.0 5.0 0.10 1.72 0.01 90 1009.7
20260506040004 46 20 2.0 5.0 0.10 1.71 0.00 90 1009.5
20260506035004 46 23 2.0 4.0 0.10 1.71 1.71 90 1009.6
20260506034004 46 27 2.0 4.0 0.09 1.70 1.70 91 1009.8
20260506033005 47 40 1.0 4.0 0.07 1.68 1.68 91 1010.1
20260506032004 47 24 1.0 4.0 0.06 1.65 1.65 91 1010.2
20260506031004 47 6 1.0 5.0 0.05 1.62 1.62 91 1010.3
20260506030004 47 17 2.0 9.0 0.05 1.61 1.61 91 1009.7
20260506025004 47 357 1.0 4.0 0.05 1.61 1.61 92 1009.2
20260506024025 47 18 1.0 3.0 0.05 1.61 1.61 92 1008.7
20260506023004 47 19 1.0 2.0 0.05 1.61 1.61 92 1009.0
20260506022004 47 26 1.0 3.0 0.03 1.59 1.59 91 1009.0
20260506021004 46 302 0.0 2.0 0.02 1.57 1.57 91 1009.8
20260506020004 46 337 1.0 4.0 0.01 1.56 1.56 91 1009.3
20260506015004 46 354 0.0 3.0 0.02 1.56 1.56 91 1008.6
20260506014025 46 8 0.0 2.0 0.03 1.56 1.56 91 1008.4
20260506013004 46 359 1.0 4.0 0.06 1.56 1.56 91 1008.7
20260506012025 46 357 1.0 3.0 0.09 1.56 1.56 91 1008.4
20260506011004 46 355 1.0 7.0 0.10 1.55 1.55 91 1008.2
20260506010004 46 5 0.0 2.0 0.12 1.55 1.55 91 1008.5
20260506005004 46 30 1.0 3.0 0.12 1.54 1.54 91 1008.5
20260506004025 46 14 1.0 4.0 0.12 1.53 1.53 91 1008.5
20260506003004 46 355 1.0 4.0 0.12 1.50 1.50 91 1008.8
20260506002004 46 352 1.0 4.0 0.12 1.47 1.47 91 1008.5
20260506001004 46 357 2.0 4.0 0.11 1.45 1.45 91 1008.4
20260506000004 46 1 1.0 3.0 0.10 1.43 1.43 90 1008.5
20260505235004 46 33 0.0 3.0 0.10 1.42 1.42 90 1008.6
20260505234025 46 21 1.0 3.0 0.10 1.41 1.41 90 1008.6
20260505233004 46 33 1.0 3.0 0.07 1.38 1.38 90 1008.9
20260505232004 46 23 1.0 3.0 0.05 1.35 1.35 90 1008.7
20260505231004 47 13 1.0 4.0 0.05 1.34 1.34 90 1008.8
20260505230004 46 354 1.0 5.0 0.07 1.33 1.33 90 1008.9
20260505225004 46 1 2.0 5.0 0.07 1.32 1.32 90 1009.0
20260505224004 46 359 4.0 9.0 0.07 1.31 1.31 90 1008.9
20260505223004 46 350 4.0 10.0 0.08 1.31 1.31 90 1008.6
20260505222004 46 353 4.0 10.0 0.07 1.30 1.30 90 1009.2
20260505221004 47 355 4.0 8.0 0.06 1.29 1.29 90 1009.3
20260505220004 47 358 3.0 5.0 0.03 1.26 1.26 90 1009.4
20260505215025 47 354 3.0 8.0 0.02 1.25 1.25 90 1009.3
20260505214004 47 355 3.0 13.0 0.02 1.24 1.24 90 1009.1
20260505213004 47 351 5.0 13.0 0.01 1.23 1.23 90 1009.0
20260505212004 48 339 4.0 11.0 0.02 1.23 1.23 90 1009.0
20260505211004 48 338 5.0 11.0 0.03 1.23 1.23 90 1008.8
20260505210004 49 345 4.0 14.0 0.04 1.23 1.23 90 1008.5
20260505205004 49 348 5.0 14.0 0.04 1.23 1.23 90 1008.7
20260505204004 49 351 3.0 6.0 0.03 1.22 1.22 90 1008.5
20260505203004 50 341 4.0 9.0 0.03 1.22 1.22 90 1008.5
20260505202004 50 338 3.0 9.0 0.02 1.21 1.21 90 1008.4
20260505201004 50 345 3.0 8.0 0.01 1.20 1.20 90 1008.3
20260505200004 51 348 2.0 5.0 0.00 1.19 1.19 90 1008.3
20260505195004 51 349 2.0 4.0 0.00 1.19 1.19 90 1008.0
20260505194004 51 344 2.0 4.0 0.01 1.19 1.19 90 1008.1
20260505193004 51 316 2.0 8.0 0.02 1.19 1.19 90 1008.2
20260505192004 52 335 3.0 9.0 0.03 1.19 1.19 90 1008.2
20260505191004 52 355 2.0 7.0 0.04 1.19 1.19 90 1008.1
20260505190004 52 11 2.0 4.0 0.05 1.19 1.19 90 1008.0
20260505185004 52 2 1.0 5.0 0.08 1.19 1.19 90 1008.0
20260505184004 52 10 2.0 5.0 0.09 1.18 1.18 90 1008.0
20260505183025 52 8 2.0 5.0 0.10 1.17 1.17 90 1007.6
20260505182025 51 26 1.0 3.0 0.12 1.16 1.16 90 1008.1
20260505181004 50 23 1.0 2.0 0.12 1.15 1.15 90 1008.2
20260505180004 50 23 1.0 4.0 0.13 1.14 1.14 89 1008.1
20260505175004 50 357 1.0 3.0 0.11 1.11 1.11 89 1008.5
20260505174004 50 19 1.0 3.0 0.10 1.09 1.09 89 1008.6
20260505173004 50 353 1.0 3.0 0.08 1.07 1.07 89 1008.7
20260505172004 50 357 0.0 3.0 0.05 1.04 1.04 88 1008.9
20260505171004 51 334 0.0 3.0 0.04 1.03 1.03 88 1009.3
20260505170004 51 343 1.0 3.0 0.02 1.01 1.01 87 1009.0
20260505165004 51 344 1.0 3.0 0.03 1.00 1.00 87 1009.1
20260505164004 52 355 2.0 5.0 0.02 0.99 0.99 87 1008.9
20260505163004 52 348 4.0 10.0 0.02 0.99 0.99 87 1008.8
20260505162004 53 336 1.0 5.0 0.04 0.99 0.99 89 1009.1
20260505161004 53 335 2.0 7.0 0.07 0.99 0.99 89 1009.1
20260505153004 57 216 1.0 4.0 0.12 0.97 0.97 90 1008.7
20260505152004 57 284 0.0 3.0 0.10 0.95 0.95 90 1007.9
20260505151004 57 238 1.0 4.0 0.07 0.92 0.92 90 1008.6
20260505125004 56 190 2.0 5.0 0.00 0.85 0.85 90 1007.6
20260505124025 56 189 2.0 5.0 0.00 0.85 0.85 90 1007.6
20260505123004 56 197 2.0 5.0 0.00 0.85 0.85 90 1007.6
20260505122004 56 176 2.0 5.0 0.00 0.85 0.85 90 1007.5
20260505121004 56 175 2.0 8.0 0.00 0.85 0.85 90 1007.5
20260505120005 56 174 2.0 7.0 0.00 0.85 0.85 90 1007.5
20260505115004 56 177 2.0 5.0 0.00 0.85 0.85 90 1007.4
20260505114004 55 170 2.0 5.0 0.00 0.85 0.85 90 1007.0
20260505113004 55 195 2.0 4.0 0.00 0.85 0.85 90 1006.9
20260505112025 55 208 2.0 6.0 0.00 0.85 0.85 90 1006.7
20260505111004 55 179 3.0 9.0 0.00 0.85 0.85 90 1006.6
20260505102004 55 165 4.0 8.0 0.00 0.85 0.85 90 1006.5
20260505101004 55 172 4.0 9.0 0.00 0.85 0.85 90 1006.5
20260505100004 55 169 4.0 10.0 0.00 0.85 0.85 90 1006.3
20260505095004 55 163 4.0 11.0 0.00 0.85 0.85 90 1005.9
20260505094004 55 142 4.0 10.0 0.00 0.85 0.85 90 1005.8
20260505093004 55 172 3.0 8.0 0.00 0.85 0.85 90 1006.1
20260505092004 55 172 3.0 8.0 0.00 0.85 0.85 90 1005.8
20260505091025 55 163 5.0 11.0 0.05 0.85 0.85 90 1005.7
20260505090004 55 154 7.0 13.0 0.10 0.85 0.85 90 1005.4
20260505085004 55 155 6.0 11.0 0.16 0.85 0.85 90 1005.3
20260505084004 55 150 7.0 12.0 0.20 0.85 0.85 90 1004.7
20260505083004 55 148 7.0 18.0 0.26 0.85 0.85 90 1004.8
20260505082004 55 128 9.0 16.0 0.30 0.85 0.85 91 1004.0
20260505081004 55 148 6.0 11.0 0.29 0.80 0.80 91 1006.0
20260505080004 55 159 3.0 7.0 0.30 0.75 0.75 91 1006.8
20260505075004 55 160 2.0 5.0 0.27 0.69 0.69 91 1007.1
20260505074004 55 232 0.0 2.0 0.25 0.65 0.65 90 1007.2
20260505073004 55 159 1.0 2.0 0.20 0.59 0.59 90 1007.6
20260505072004 56 181 1.0 4.0 0.16 0.55 0.55 90 1007.6
20260505071004 55 210 2.0 3.0 0.15 0.51 0.51 90 1007.7
20260505070004 55 172 0.0 1.0 0.13 0.45 0.45 90 1007.2
20260505065004 55 143 0.0 2.0 0.14 0.42 0.42 89 1006.9
20260505064004 56 143 0.0 1.0 0.15 0.40 0.40 89 1006.8
20260505063025 56 106 1.0 2.0 0.18 0.39 0.39 88 1006.7
20260505062025 56 32 1.0 3.0 0.20 0.39 0.39 88 1006.5
20260505061004 56 337 0.0 2.0 0.19 0.36 0.36 87 1007.1
20260505060004 56 352 1.0 4.0 0.32 0.32 0.32 86 1007.5
20260505055004 56 352 2.0 8.0 0.28 0.28 0.28 84 1007.4